Location: Laterina
(43.5167°N, 11.7167°E)
Time: 16:44:43
(UTC+00:00)

Cosmos 1428 Rocket - Pass Details

Date: 24 September 2020
Orbit: 947 x 989 km, 82.9° (Epoch: 26 October)

Event Time Altitude Azimuth Distance (km) Brightness Sun altitude
Rises 18:58:32 0° 353° (N) 3,691 7.9 -20.8°
Reaches altitude 10° 19:01:06 10° 356° (N) 2,733 7.1 -21.3°
Maximum altitude 19:07:21 71° 81° (E) 1,020 4.4 -22.3°
Enters shadow 19:10:08 35° 156° (SSE) 1,519 5.1 -22.8°
